This is the latest recevied weather packets stored in our database for station/object DK8RG-15. If no packets are shown the sender has not sent any weather packets the latest 10 day(s).
| Time | Temp. | Humidity | Pressure | Rain* | Wind** | Luminosity | Snow |
|---|---|---|---|---|---|---|---|
| 1777392016 | 15° C | 39% | 1017.4 hPa | 0 mm | - | - | - |
| 1777391417 | 15° C | 38% | 1017.4 hPa | 0 mm | - | - | - |
| 1777390817 | 15° C | 39% | 1017.4 hPa | 0 mm | - | - | - |
| 1777390216 | 15° C | 40% | 1017.4 hPa | 0 mm | - | - | - |
| 1777389616 | 15° C | 40% | 1017.4 hPa | 0 mm | - | - | - |
| 1777389017 | 13.89° C | 37% | 1017.3 hPa | 0 mm | - | - | - |
| 1777388417 | 15° C | 40% | 1017.4 hPa | 0 mm | - | - | - |
| 1777387817 | 15° C | 41% | 1017.4 hPa | 0 mm | - | - | - |
| 1777387217 | 15° C | 41% | 1017.4 hPa | 0 mm | - | - | - |
| 1777386617 | 15.56° C | 39% | 1017.5 hPa | 0 mm | - | - | - |
| 1777386017 | 15° C | 39% | 1017.5 hPa | 0 mm | - | - | - |
| 1777385416 | 15° C | 40% | 1017.5 hPa | 0 mm | - | - | - |
| 1777384816 | 14.44° C | 42% | 1017.5 hPa | 0 mm | - | - | - |
| 1777384217 | 13.89° C | 43% | 1017.4 hPa | 0 mm | - | - | - |
| 1777383617 | 14.44° C | 43% | 1018.5 hPa | 0 mm | - | - | - |
| 1777383017 | 15° C | 42% | 1018.5 hPa | 0 mm | - | - | - |
| 1777382416 | 15° C | 43% | 1018.5 hPa | 0 mm | - | - | - |
| 1777381817 | 15° C | 43% | 1017.5 hPa | 0 mm | - | - | - |
| 1777381216 | 15° C | 44% | 1018.5 hPa | 0 mm | - | - | - |
| 1777380616 | 15° C | 46% | 1017.5 hPa | 0 mm | - | - | - |
| 1777380017 | 15° C | 46% | 1018.5 hPa | 0 mm | - | - | - |
| 1777379416 | 15° C | 46% | 1017.5 hPa | 0 mm | - | - | - |
| 1777378816 | 15° C | 45% | 1017.6 hPa | 0 mm | - | - | - |
| 1777378217 | 15° C | 46% | 1018.6 hPa | 0 mm | - | - | - |
| 1777377618 | 14.44° C | 47% | 1018.5 hPa | 0 mm | - | - | - |
* Rain latest hour (hover to see other rain measurements)
** Current wind speed in m/s (hover to see current wind gust speed)